EN

Hourly Weather Abay

Today, 6 December, Sunday

Time Temperature Precipitation Wind Pressure Humidity
00:00 -8°C° 0 mm 1 mps 725 mmHg 86%
01:00 -8°C° 0 mm 1 mps 725 mmHg 85%
02:00 -8°C° 0 mm 1 mps 725 mmHg 83%
03:00 -8°C° 0 mm 1 mps 725 mmHg 82%
04:00 -8°C° 0 mm 1 mps 725 mmHg 80%
05:00 -9°C° 0 mm 1 mps 726 mmHg 79%
06:00 -8°C° 0 mm 1 mps 726 mmHg 77%
07:00 -8°C° 0 mm 1 mps 726 mmHg 75%
08:00 -8°C° 0 mm 1 mps 726 mmHg 73%
09:00 -6°C° 0 mm 1 mps 726 mmHg 68%
10:00 -3°C° 0 mm 1 mps 726 mmHg 62%
11:00 -2°C° 0 mm 1 mps 726 mmHg 57%
12:00 -1°C° 0 mm 1 mps 726 mmHg 60%
13:00 -1°C° 0 mm 1 mps 726 mmHg 62%
14:00 -2°C° 0 mm 2 mps 725 mmHg 64%
15:00 -3°C° 0 mm 2 mps 725 mmHg 70%
16:00 -3°C° 0 mm 1 mps 725 mmHg 76%
17:00 -4°C° 0 mm 1 mps 725 mmHg 81%
18:00 -6°C° 0 mm 1 mps 725 mmHg 81%
19:00 -6°C° 0 mm 1 mps 725 mmHg 80%
20:00 -7°C° 0 mm 1 mps 724 mmHg 79%
21:00 -7°C° 0 mm 1 mps 724 mmHg 79%
22:00 -7°C° 0 mm 0 mps 724 mmHg 78%
23:00 -7°C° 0 mm 0 mps 723 mmHg 77%

Tomorrow, 7 December, Monday

Time Temperature Precipitation Wind Pressure Humidity
00:00 -7°C° 0 mm 0 mps 723 mmHg 79%
01:00 -8°C° 0 mm 0 mps 723 mmHg 81%
02:00 -8°C° 0 mm 0 mps 723 mmHg 83%
03:00 -8°C° 0 mm 1 mps 723 mmHg 83%
04:00 -8°C° 0 mm 1 mps 722 mmHg 84%
05:00 -8°C° 0 mm 1 mps 722 mmHg 85%
06:00 -8°C° 0 mm 1 mps 722 mmHg 87%
07:00 -8°C° 0 mm 1 mps 722 mmHg 89%
08:00 -8°C° 0 mm 1 mps 722 mmHg 91%
09:00 -7°C° 0 mm 1 mps 722 mmHg 89%
10:00 -7°C° 0 mm 1 mps 723 mmHg 87%
11:00 -6°C° 0 mm 1 mps 723 mmHg 84%
12:00 -4°C° 0 mm 1 mps 723 mmHg 83%
13:00 -5°C° 0 mm 2 mps 723 mmHg 81%
14:00 -5°C° 0 mm 2 mps 723 mmHg 79%
15:00 -4°C° 0 mm 1 mps 723 mmHg 82%
16:00 -6°C° 0 mm 1 mps 724 mmHg 86%
17:00 -7°C° 0 mm 1 mps 724 mmHg 89%
18:00 -7°C° 0 mm 1 mps 724 mmHg 90%
19:00 -8°C° 0 mm 1 mps 725 mmHg 91%
20:00 -8°C° 0 mm 1 mps 725 mmHg 91%
21:00 -9°C° 0 mm 1 mps 725 mmHg 92%
22:00 -9°C° 0 mm 1 mps 725 mmHg 93%
23:00 -10°C° 0 mm 1 mps 725 mmHg 93%

Day after tomorrow, 8 December, Tuesday

Time Temperature Precipitation Wind Pressure Humidity
00:00 -10°C° 0 mm 1 mps 725 mmHg 93%
01:00 -10°C° 0 mm 1 mps 725 mmHg 94%
02:00 -11°C° 0 mm 0 mps 725 mmHg 94%
03:00 -11°C° 0 mm 0 mps 725 mmHg 94%
04:00 -11°C° 0 mm 0 mps 725 mmHg 94%
05:00 -11°C° 0 mm 0 mps 725 mmHg 94%
06:00 -11°C° 0 mm 0 mps 726 mmHg 95%
07:00 -12°C° 0 mm 0 mps 726 mmHg 95%
08:00 -12°C° 0 mm 0 mps 726 mmHg 95%
09:00 -10°C° 0 mm 1 mps 726 mmHg 92%
10:00 -9°C° 0 mm 1 mps 726 mmHg 89%
11:00 -8°C° 0 mm 1 mps 726 mmHg 86%
12:00 -7°C° 0 mm 1 mps 727 mmHg 84%
13:00 -6°C° 0 mm 1 mps 727 mmHg 83%
14:00 -6°C° 0 mm 1 mps 727 mmHg 82%
15:00 -6°C° 0 mm 1 mps 727 mmHg 85%
16:00 -7°C° 0 mm 1 mps 727 mmHg 88%
17:00 -8°C° 0 mm 1 mps 727 mmHg 91%
18:00 -8°C° 0 mm 1 mps 728 mmHg 91%
19:00 -8°C° 0 mm 1 mps 728 mmHg 92%
20:00 -8°C° 0 mm 1 mps 728 mmHg 92%
21:00 -8°C° 0 mm 1 mps 728 mmHg 91%
22:00 -9°C° 0 mm 1 mps 728 mmHg 91%
23:00 -9°C° 0 mm 1 mps 728 mmHg 91%

9 December, Wednesday

Time Temperature Precipitation Wind Pressure Humidity
00:00 -10°C° 0 mm 1 mps 728 mmHg 90%
01:00 -10°C° 0 mm 1 mps 728 mmHg 90%
02:00 -11°C° 0 mm 1 mps 728 mmHg 90%
03:00 -11°C° 0 mm 1 mps 728 mmHg 90%
04:00 -11°C° 0 mm 1 mps 727 mmHg 89%
05:00 -11°C° 0 mm 1 mps 727 mmHg 88%
06:00 -11°C° 0 mm 1 mps 727 mmHg 87%
07:00 -11°C° 0 mm 1 mps 727 mmHg 85%
08:00 -11°C° 0 mm 1 mps 727 mmHg 84%
09:00 -9°C° 0 mm 1 mps 727 mmHg 80%
10:00 -8°C° 0 mm 1 mps 727 mmHg 76%
11:00 -7°C° 0 mm 2 mps 727 mmHg 72%
12:00 -6°C° 0 mm 2 mps 727 mmHg 71%
13:00 -4°C° 0 mm 1 mps 726 mmHg 70%
14:00 -3°C° 0 mm 1 mps 726 mmHg 69%
15:00 -4°C° 0 mm 1 mps 726 mmHg 74%
16:00 -6°C° 0 mm 1 mps 726 mmHg 78%
17:00 -8°C° 0 mm 1 mps 725 mmHg 83%
18:00 -8°C° 0 mm 1 mps 725 mmHg 82%
19:00 -8°C° 0 mm 1 mps 725 mmHg 81%
20:00 -8°C° 0 mm 1 mps 725 mmHg 80%
21:00 -9°C° 0 mm 1 mps 725 mmHg 78%
22:00 -9°C° 0 mm 1 mps 724 mmHg 77%
23:00 -9°C° 0 mm 1 mps 724 mmHg 76%

10 December, Thursday

Time Temperature Precipitation Wind Pressure Humidity
00:00 -9°C° 0 mm 1 mps 724 mmHg 75%
01:00 -9°C° 0 mm 0 mps 724 mmHg 74%
02:00 -9°C° 0 mm 0 mps 724 mmHg 73%
03:00 -9°C° 0 mm 0 mps 724 mmHg 72%
04:00 -10°C° 0 mm 0 mps 724 mmHg 72%
05:00 -10°C° 0 mm 0 mps 724 mmHg 71%
06:00 -9°C° 0 mm 0 mps 724 mmHg 70%
07:00 -9°C° 0 mm 0 mps 724 mmHg 69%
08:00 -9°C° 0 mm 1 mps 725 mmHg 68%
09:00 -8°C° 0 mm 1 mps 725 mmHg 64%
10:00 -6°C° 0 mm 1 mps 725 mmHg 61%
11:00 -3°C° 0 mm 1 mps 725 mmHg 58%
12:00 -3°C° 0 mm 1 mps 725 mmHg 59%
13:00 -2°C° 0 mm 1 mps 725 mmHg 60%
14:00 -1°C° 0 mm 1 mps 725 mmHg 60%
15:00 -3°C° 0 mm 1 mps 725 mmHg 66%
16:00 -4°C° 0 mm 1 mps 725 mmHg 72%
17:00 -7°C° 0 mm 1 mps 725 mmHg 78%
18:00 -7°C° 0 mm 1 mps 725 mmHg 78%
19:00 -7°C° 0 mm 1 mps 726 mmHg 78%
20:00 -7°C° 0 mm 0 mps 726 mmHg 78%
21:00 -8°C° 0 mm 1 mps 725 mmHg 78%
22:00 -8°C° 0 mm 1 mps 725 mmHg 78%
23:00 -8°C° 0 mm 1 mps 725 mmHg 78%

11 December, Friday

Time Temperature Precipitation Wind Pressure Humidity
00:00 -8°C° 0 mm 1 mps 725 mmHg 77%
01:00 -8°C° 0 mm 0 mps 725 mmHg 76%
02:00 -9°C° 0 mm 0 mps 725 mmHg 76%
03:00 -9°C° 0 mm 0 mps 725 mmHg 76%
04:00 -9°C° 0 mm 0 mps 725 mmHg 76%
05:00 -9°C° 0 mm 0 mps 725 mmHg 75%
06:00 -9°C° 0 mm 0 mps 725 mmHg 75%
07:00 -9°C° 0 mm 0 mps 725 mmHg 75%
08:00 -9°C° 0 mm 0 mps 725 mmHg 75%
09:00 -8°C° 0 mm 1 mps 725 mmHg 71%
10:00 -6°C° 0 mm 1 mps 725 mmHg 68%
11:00 -3°C° 0 mm 1 mps 725 mmHg 64%
12:00 -3°C° 0 mm 1 mps 725 mmHg 65%
13:00 -2°C° 0 mm 1 mps 725 mmHg 65%
14:00 -4°C° 0 mm 2 mps 725 mmHg 66%
15:00 -3°C° 0 mm 1 mps 725 mmHg 72%
16:00 -6°C° 0 mm 1 mps 725 mmHg 78%
17:00 -7°C° 0 mm 1 mps 725 mmHg 84%
18:00 -8°C° 0 mm 1 mps 725 mmHg 86%
19:00 -8°C° 0 mm 1 mps 725 mmHg 87%
20:00 -9°C° 0 mm 1 mps 725 mmHg 89%
21:00 -9°C° 0 mm 1 mps 725 mmHg 88%
22:00 -9°C° 0 mm 1 mps 725 mmHg 88%
23:00 -10°C° 0 mm 1 mps 724 mmHg 87%
Show more